Simultaneous Nadir Overpasses (SNOs) Predictions

Prediction of SNOs between GOES-17 and METOP-C Satellite Orbit:

Table of predicted SNOs for the next 14.0 days since TLE Epoch: 10/28/2023
Index Date Time (GOES-17) GOES-17 Lat,Lon METOP-C Lat,Lon Distance(km) Time Diff (sec)
1 10/28/2023 16:25:08 0.00,-104.69 -0.23,-103.65 117.67 80
2 10/30/2023 04:44:09 0.00,-104.67 -0.78,-108.25 407.95 80
3 10/31/2023 04:20:50 0.00,-104.67 0.33,-103.26 161.20 80
4 11/01/2023 16:39:41 -0.00,-104.69 0.68,-107.81 356.00 80
5 11/02/2023 16:21:42 -0.00,-104.69 -0.43,-102.82 213.52 80
6 11/04/2023 04:40:42 0.00,-104.68 -0.60,-107.41 311.46 80
7 11/05/2023 04:17:23 -0.00,-104.68 0.52,-102.41 257.98 80
8 11/06/2023 16:36:14 0.00,-104.70 0.50,-106.97 259.07 80
9 11/07/2023 16:18:14 0.00,-104.70 -0.62,-101.98 310.88 80
10 11/09/2023 04:37:14 -0.00,-104.69 -0.44,-106.56 213.06 80
11 11/10/2023 04:13:54 -0.00,-104.70 0.69,-101.56 356.67 80
